Location: Jetmore
(38.0845°N, 99.8935°W)
Time: 09:41:07
(UTC+00:00)

N. Korean satellite - Pass Details

Date: 22 September 2021
Orbit: 450 x 495 km, 97.3° (Epoch: 15 October)

Event Time Altitude Azimuth Distance (km) Brightness Sun altitude
Rises 11:13:26 0° 26° (NNE) 2,518 10.8 -15.3°
Reaches altitude 10° 11:15:48 10° 42° (NE) 1,645 10.1 -14.9°
Maximum altitude 11:18:40 23° 96° (E) 1,059 9.2 -14.3°
Drops below altitude 10° 11:21:33 10° 150° (SSE) 1,656 9.5 -13.7°
Sets 11:23:55 0° 165° (SSE) 2,539 10.3 -13.3°
